Hourly Weather Abaigar

Today, 21 October, Wednesday

Time Temperature Precipitation Wind Pressure Humidity
00:00 +13°C° 0 mm 12 mps 697 mmHg 81%
01:00 +13°C° 0.7 mm 11 mps 697 mmHg 82%
02:00 +13°C° 0.7 mm 9 mps 697 mmHg 83%
03:00 +13°C° 0.7 mm 8 mps 698 mmHg 84%
04:00 +12°C° 0 mm 8 mps 699 mmHg 84%
05:00 +12°C° 0 mm 7 mps 699 mmHg 84%
06:00 +12°C° 0 mm 5 mps 700 mmHg 85%
07:00 +14°C° 0 mm 6 mps 700 mmHg 79%
08:00 +15°C° 0 mm 6 mps 701 mmHg 73%
09:00 +16°C° 0 mm 7 mps 702 mmHg 67%
10:00 +17°C° 0 mm 7 mps 702 mmHg 62%
11:00 +18°C° 0 mm 7 mps 703 mmHg 57%
12:00 +20°C° 0 mm 8 mps 703 mmHg 51%
13:00 +20°C° 0 mm 8 mps 703 mmHg 50%
14:00 +20°C° 0 mm 7 mps 703 mmHg 50%
15:00 +20°C° 0 mm 7 mps 703 mmHg 49%
16:00 +18°C° 0 mm 7 mps 703 mmHg 52%
17:00 +17°C° 0 mm 6 mps 703 mmHg 55%
18:00 +16°C° 0 mm 5 mps 703 mmHg 58%
19:00 +15°C° 0 mm 5 mps 703 mmHg 61%
20:00 +15°C° 0 mm 4 mps 704 mmHg 65%
21:00 +14°C° 0 mm 4 mps 704 mmHg 68%
22:00 +14°C° 0 mm 3 mps 704 mmHg 70%
23:00 +14°C° 0 mm 3 mps 704 mmHg 72%

Tomorrow, 22 October, Thursday

Time Temperature Precipitation Wind Pressure Humidity
00:00 +13°C° 0 mm 3 mps 704 mmHg 74%
01:00 +13°C° 0 mm 3 mps 704 mmHg 75%
02:00 +13°C° 0 mm 3 mps 704 mmHg 77%
03:00 +13°C° 0 mm 3 mps 704 mmHg 78%
04:00 +13°C° 0 mm 3 mps 704 mmHg 79%
05:00 +12°C° 0 mm 3 mps 704 mmHg 81%
06:00 +12°C° 0 mm 3 mps 704 mmHg 82%
07:00 +13°C° 0.1 mm 3 mps 705 mmHg 81%
08:00 +13°C° 0.1 mm 3 mps 705 mmHg 79%
09:00 +14°C° 0.1 mm 3 mps 706 mmHg 77%
10:00 +16°C° 0.2 mm 3 mps 706 mmHg 73%
11:00 +17°C° 0.2 mm 3 mps 706 mmHg 70%
12:00 +18°C° 0.2 mm 4 mps 706 mmHg 66%
13:00 +19°C° 0.2 mm 4 mps 706 mmHg 62%
14:00 +19°C° 0.2 mm 5 mps 705 mmHg 57%
15:00 +20°C° 0.2 mm 5 mps 705 mmHg 53%
16:00 +19°C° 0.2 mm 4 mps 705 mmHg 60%
17:00 +17°C° 0.2 mm 3 mps 705 mmHg 67%
18:00 +15°C° 0.2 mm 2 mps 705 mmHg 74%
19:00 +15°C° 0 mm 2 mps 705 mmHg 77%
20:00 +14°C° 0 mm 2 mps 706 mmHg 80%
21:00 +14°C° 0 mm 1 mps 706 mmHg 83%
22:00 +14°C° 0.1 mm 1 mps 706 mmHg 84%
23:00 +13°C° 0.1 mm 1 mps 706 mmHg 85%

Day after tomorrow, 23 October, Friday

Time Temperature Precipitation Wind Pressure Humidity
00:00 +13°C° 0.1 mm 1 mps 706 mmHg 86%
01:00 +13°C° 0.3 mm 1 mps 706 mmHg 87%
02:00 +13°C° 0.3 mm 1 mps 707 mmHg 87%
03:00 +12°C° 0.3 mm 1 mps 707 mmHg 87%
04:00 +12°C° 0.4 mm 1 mps 707 mmHg 88%
05:00 +11°C° 0.4 mm 1 mps 707 mmHg 88%
06:00 +11°C° 0.4 mm 1 mps 707 mmHg 89%
07:00 +12°C° 0.2 mm 2 mps 708 mmHg 82%
08:00 +13°C° 0.2 mm 2 mps 709 mmHg 75%
09:00 +13°C° 0.2 mm 3 mps 709 mmHg 68%
10:00 +14°C° 0 mm 4 mps 710 mmHg 64%
11:00 +15°C° 0 mm 4 mps 710 mmHg 59%
12:00 +16°C° 0 mm 5 mps 711 mmHg 55%
13:00 +16°C° 0.1 mm 5 mps 711 mmHg 55%
14:00 +16°C° 0.1 mm 5 mps 711 mmHg 55%
15:00 +17°C° 0.1 mm 4 mps 711 mmHg 56%
16:00 +14°C° 0 mm 4 mps 711 mmHg 63%
17:00 +13°C° 0 mm 3 mps 711 mmHg 70%
18:00 +12°C° 0 mm 2 mps 711 mmHg 77%
19:00 +12°C° 0 mm 2 mps 711 mmHg 80%
20:00 +11°C° 0 mm 1 mps 712 mmHg 83%
21:00 +11°C° 0 mm 1 mps 712 mmHg 87%
22:00 +10°C° 0 mm 1 mps 712 mmHg 88%
23:00 +10°C° 0 mm 1 mps 712 mmHg 88%

24 October, Saturday

Time Temperature Precipitation Wind Pressure Humidity
00:00 +10°C° 0 mm 1 mps 712 mmHg 89%
01:00 +10°C° 0 mm 1 mps 712 mmHg 89%
02:00 +9°C° 0 mm 1 mps 712 mmHg 89%
03:00 +9°C° 0 mm 1 mps 712 mmHg 90%
04:00 +9°C° 0 mm 1 mps 712 mmHg 89%
05:00 +8°C° 0 mm 0 mps 712 mmHg 89%
06:00 +8°C° 0 mm 0 mps 712 mmHg 89%
07:00 +10°C° 0 mm 1 mps 712 mmHg 83%
08:00 +12°C° 0 mm 1 mps 712 mmHg 77%
09:00 +13°C° 0 mm 1 mps 712 mmHg 71%
10:00 +14°C° 0 mm 1 mps 712 mmHg 65%
11:00 +16°C° 0 mm 2 mps 711 mmHg 59%
12:00 +17°C° 0 mm 2 mps 711 mmHg 52%
13:00 +17°C° 0 mm 2 mps 711 mmHg 51%
14:00 +18°C° 0 mm 3 mps 710 mmHg 50%
15:00 +18°C° 0 mm 3 mps 710 mmHg 49%
16:00 +16°C° 0 mm 2 mps 709 mmHg 54%
17:00 +15°C° 0 mm 2 mps 709 mmHg 60%
18:00 +13°C° 0 mm 1 mps 708 mmHg 65%
19:00 +13°C° 0 mm 1 mps 708 mmHg 66%
20:00 +12°C° 0 mm 1 mps 708 mmHg 68%
21:00 +11°C° 0 mm 1 mps 708 mmHg 70%
22:00 +11°C° 0 mm 1 mps 708 mmHg 71%
23:00 +11°C° 0 mm 1 mps 707 mmHg 72%

25 October, Sunday

Time Temperature Precipitation Wind Pressure Humidity
00:00 +10°C° 0 mm 1 mps 707 mmHg 74%
01:00 +10°C° 0 mm 1 mps 707 mmHg 75%
02:00 +10°C° 0 mm 1 mps 706 mmHg 76%
03:00 +9°C° 0 mm 1 mps 706 mmHg 78%
04:00 +9°C° 0 mm 1 mps 705 mmHg 78%
05:00 +9°C° 0 mm 1 mps 705 mmHg 79%
06:00 +9°C° 0 mm 1 mps 705 mmHg 80%
07:00 +9°C° 0 mm 2 mps 705 mmHg 75%
08:00 +10°C° 0 mm 2 mps 705 mmHg 71%
09:00 +12°C° 0 mm 2 mps 706 mmHg 66%
10:00 +12°C° 0.3 mm 2 mps 706 mmHg 69%
11:00 +12°C° 0.3 mm 2 mps 706 mmHg 73%
12:00 +12°C° 0.3 mm 2 mps 706 mmHg 76%
13:00 +12°C° 0.8 mm 2 mps 706 mmHg 77%
14:00 +10°C° 0.8 mm 3 mps 705 mmHg 79%
15:00 +10°C° 0.8 mm 3 mps 705 mmHg 81%
16:00 +9°C° 0.1 mm 2 mps 705 mmHg 80%
17:00 +8°C° 0.1 mm 2 mps 705 mmHg 79%
18:00 +9°C° 0.1 mm 1 mps 705 mmHg 78%
19:00 +8°C° 0.2 mm 1 mps 706 mmHg 80%
20:00 +8°C° 0.2 mm 1 mps 706 mmHg 82%
21:00 +8°C° 0.2 mm 1 mps 706 mmHg 83%
22:00 +7°C° 0.1 mm 1 mps 705 mmHg 84%
23:00 +7°C° 0.1 mm 1 mps 705 mmHg 86%

26 October, Monday

Time Temperature Precipitation Wind Pressure Humidity
00:00 +6°C° 0.1 mm 1 mps 705 mmHg 87%
01:00 +6°C° 0 mm 1 mps 705 mmHg 86%
02:00 +6°C° 0 mm 1 mps 705 mmHg 84%
03:00 +6°C° 0 mm 1 mps 704 mmHg 83%
04:00 +6°C° 0 mm 1 mps 704 mmHg 84%
05:00 +5°C° 0 mm 2 mps 704 mmHg 84%
06:00 +4°C° 0 mm 2 mps 704 mmHg 85%
07:00 +5°C° 0.2 mm 3 mps 705 mmHg 81%
08:00 +6°C° 0.2 mm 5 mps 705 mmHg 77%
09:00 +7°C° 0.2 mm 6 mps 705 mmHg 73%
10:00 +6°C° 0.1 mm 7 mps 706 mmHg 70%
11:00 +7°C° 0.1 mm 8 mps 706 mmHg 68%
12:00 +7°C° 0.1 mm 8 mps 706 mmHg 65%
13:00 +7°C° 0.1 mm 8 mps 706 mmHg 65%
14:00 +7°C° 0.1 mm 8 mps 706 mmHg 65%
15:00 +7°C° 0.1 mm 8 mps 706 mmHg 65%
16:00 +7°C° 0.1 mm 6 mps 707 mmHg 71%
17:00 +6°C° 0.1 mm 5 mps 707 mmHg 76%
18:00 +5°C° 0.1 mm 4 mps 707 mmHg 82%
19:00 +5°C° 0 mm 3 mps 708 mmHg 83%
20:00 +5°C° 0 mm 3 mps 708 mmHg 84%
21:00 +5°C° 0 mm 3 mps 708 mmHg 85%
22:00 +5°C° 0.2 mm 3 mps 708 mmHg 85%
23:00 +5°C° 0.2 mm 3 mps 708 mmHg 86%

27 October, Tuesday

Time Temperature Precipitation Wind Pressure Humidity
00:00 +5°C° 0.2 mm 3 mps 709 mmHg 86%
01:00 +6°C° 0.1 mm 2 mps 709 mmHg 86%
02:00 +5°C° 0.1 mm 2 mps 708 mmHg 86%
03:00 +5°C° 0.1 mm 2 mps 708 mmHg 86%
04:00 +5°C° 0 mm 2 mps 709 mmHg 86%
05:00 +5°C° 0 mm 2 mps 709 mmHg 86%
06:00 +5°C° 0 mm 2 mps 709 mmHg 86%
07:00 +6°C° 0 mm 2 mps 709 mmHg 82%
08:00 +7°C° 0 mm 2 mps 709 mmHg 77%
09:00 +8°C° 0 mm 2 mps 709 mmHg 72%
10:00 +10°C° 0 mm 2 mps 709 mmHg 65%
11:00 +12°C° 0 mm 2 mps 709 mmHg 58%
12:00 +13°C° 0 mm 2 mps 709 mmHg 51%
13:00 +13°C° 0 mm 2 mps 709 mmHg 50%
14:00 +13°C° 0 mm 3 mps 708 mmHg 48%
15:00 +13°C° 0 mm 3 mps 708 mmHg 47%
16:00 +13°C° 0 mm 2 mps 708 mmHg 50%
17:00 +12°C° 0 mm 2 mps 708 mmHg 53%
18:00 +12°C° 0 mm 1 mps 708 mmHg 57%
19:00 +12°C° 0 mm 1 mps 708 mmHg 58%
20:00 +11°C° 0 mm 1 mps 708 mmHg 59%
21:00 +11°C° 0 mm 1 mps 708 mmHg 60%
22:00 +11°C° 0 mm 1 mps 708 mmHg 62%
23:00 +11°C° 0 mm 1 mps 708 mmHg 64%
Show more